Tampa, FL

7:41 AM EDT on September 23, 2017 (GMT -0400)
Tampa International

Weather History for KTPA - July, 2013

Change the Weather History Date:

Monday, July 22, 2013

  Actual Average Record
Temperature  
Mean Temperature 86 °F 83 °F  
Max Temperature 91 °F 90 °F 97 °F (1942)
Min Temperature 80 °F 76 °F 68 °F (1907)
Degree Days  
Heating Degree Days 0 0  
Month to date heating degree days 0 0  
Since 1 June heating degree days 0 0  
Since 1 July heating degree days 0 0  
Cooling Degree Days 21 18  
Month to date cooling degree days 381 396  
Year to date cooling degree days 1879 1789  
Since 1 June cooling degree days 904 912  
Growing Degree Days 36 (Base 50)    
Moisture  
Dew Point 76 °F    
Average Humidity 75    
Maximum Humidity 91    
Minimum Humidity 59    
Precipitation  
Precipitation 0.00 in 0.21 in 1.97 in (1951)
Month to date precipitation 4.76 5.07  
Year to date precipitation 25.18 23.95  
Sea Level Pressure  
Sea Level Pressure 30.11 in    
Wind  
Wind Speed 8 mph (SW)    
Max Wind Speed 14 mph    
Max Gust Speed 18 mph    
Visibility 10 miles    
Events      
T = Trace of Precipitation, MM = Missing Value Source: NWS Daily Summary

Daily Weather History Graph

Daily Weather History Graph

Search for Another Location

Airport or City:

Trip Planner

Search our weather history database for the weather conditions in past years. The results will help you decide how hot, cold, wet, or windy it might be!

Date:

Astronomy

Jul. 22, 2013 Rise Set
Actual Time 6:47 AM EDT 8:25 PM EDT
Civil Twilight 6:21 AM EDT 8:51 PM EDT
Nautical Twilight 5:50 AM EDT 9:22 PM EDT
Astronomical Twilight 5:18 AM EDT 9:54 PM EDT
Moon 8:18 PM EDT (7/22) 6:37 AM EDT (7/22)
Length of Visible Light 14h 29m
Length of Day
13h 38m
Full, 100% of the Moon is Illuminated
Jul 22
Full
Jul 22
Full
Jul 29
Last Quarter
Aug 6
New
Aug 14
First Quarter

Hourly Weather History & Observations

Time (EDT) Temp. Heat Index Dew Point Humidity Pressure Visibility Wind Dir Wind Speed Gust Speed Precip Events Conditions
12:53 AM 82.0 °F 90.2 °F 77.0 °F 85% 30.13 in 10.0 mi SW 4.6 mph - N/A   Overcast
1:53 AM 81.0 °F 87.3 °F 75.9 °F 85% 30.12 in 10.0 mi SW 4.6 mph - N/A   Overcast
2:53 AM 81.0 °F 87.9 °F 77.0 °F 88% 30.10 in 10.0 mi SSW 6.9 mph - N/A   Scattered Clouds
3:53 AM 81.0 °F 87.9 °F 77.0 °F 88% 30.08 in 10.0 mi SSW 4.6 mph - N/A   Overcast
4:53 AM 80.1 °F 85.4 °F 75.9 °F 87% 30.08 in 10.0 mi SSW 3.5 mph - N/A   Overcast
5:53 AM 80.1 °F 85.8 °F 77.0 °F 90% 30.09 in 10.0 mi South 5.8 mph - N/A   Mostly Cloudy
6:53 AM 80.1 °F 85.8 °F 77.0 °F 90% 30.10 in 10.0 mi South 4.6 mph - N/A   Mostly Cloudy
7:53 AM 81.0 °F 87.9 °F 77.0 °F 88% 30.12 in 10.0 mi South 5.8 mph - N/A   Scattered Clouds
8:53 AM 82.9 °F 91.8 °F 77.0 °F 82% 30.14 in 10.0 mi South 6.9 mph - N/A   Scattered Clouds
9:53 AM 84.0 °F 93.7 °F 77.0 °F 79% 30.14 in 10.0 mi South 9.2 mph - N/A   Scattered Clouds
10:53 AM 84.0 °F 93.7 °F 77.0 °F 79% 30.14 in 10.0 mi South 9.2 mph - N/A   Scattered Clouds
11:53 AM 87.1 °F 99.8 °F 78.1 °F 74% 30.14 in 10.0 mi South 11.5 mph - N/A   Scattered Clouds
12:53 PM 89.1 °F 101.4 °F 77.0 °F 67% 30.13 in 10.0 mi SSW 10.4 mph - N/A   Scattered Clouds
1:53 PM 89.1 °F 98.0 °F 73.9 °F 61% 30.12 in 10.0 mi WSW 10.4 mph - N/A   Scattered Clouds
2:53 PM 90.0 °F 100.2 °F 75.0 °F 61% 30.12 in 10.0 mi WSW 11.5 mph - N/A   Scattered Clouds
3:53 PM 89.1 °F 98.0 °F 73.9 °F 61% 30.09 in 10.0 mi WSW 11.5 mph - N/A   Scattered Clouds
4:53 PM 88.0 °F 97.5 °F 75.0 °F 65% 30.09 in 10.0 mi WSW 11.5 mph - N/A   Scattered Clouds
5:53 PM 87.1 °F 96.3 °F 75.0 °F 67% 30.10 in 10.0 mi WSW 10.4 mph - N/A   Mostly Cloudy
6:53 PM 86.0 °F 93.8 °F 73.9 °F 67% 30.11 in 10.0 mi West 9.2 mph - N/A   Overcast
7:53 PM 84.9 °F 92.1 °F 73.9 °F 69% 30.09 in 10.0 mi West 8.1 mph - N/A   Overcast
8:53 PM 84.0 °F 91.2 °F 73.9 °F 72% 30.08 in 10.0 mi West 9.2 mph - N/A   Mostly Cloudy
9:53 PM 82.9 °F 90.2 °F 75.0 °F 77% 30.11 in 10.0 mi West 6.9 mph - N/A   Mostly Cloudy
10:53 PM 82.9 °F 90.2 °F 75.0 °F 77% 30.12 in 10.0 mi West 8.1 mph - N/A   Scattered Clouds
11:53 PM 82.9 °F 90.2 °F 75.0 °F 77% 30.11 in 10.0 mi West 8.1 mph - N/A   Scattered Clouds